Epoch 2022 Jan. 21.0 TT = JDT 2459600.5
T 2022 June 9.17088 TT Rudenko
q 4.2423794 (2000.0) P Q
z +0.0009755 Peri. 351.20605 -0.95991890 +0.05616203
+/-0.0000009 Node 199.94030 -0.18205825 -0.86982959
e 0.9958614 Incl. 53.62598 -0.21309739 +0.49014519
From 772 observations 2019 Feb. 5-2022 Jan. 28, mean residual 0".4.
Finding Charts
Magnitudes Graph
m1 = -2.5 + 5 log d + 18.0 log r
The orbital elements are published on M.P.E.C. 2022-C56.
The charts are made with StellaNavigator Ver.10 (AstroArts).
The magnitudes graphs are made with Comet for Windows.
Copyright(C) Seiichi Yoshida (comet@aerith.net). All rights reserved.